[[{"header":{"parameterUnit":"m.s-1","parameterCategory":2,"la1":30.2991,"la2":30.254,"lo1":-89.0895,"lo2":-89.0444,"dy":0.0017,"dx":0.0017,"nx":28,"ny":28,"refTime":"2024-02-27T09:00:00:Z","depth":"0","parameterNumber":2,"parameterNumberName":"U-component_of_CURRENTS"},"data":[0,0,0,0,0,0,0,0,0,0,0,0,0,0,0,0,0,0,0,0,0,0,0,0,0,0,0,0,0,0,0,0,0,0,0,0,0,0,0,0,0,0,0,0,0,0,0,0,0,0,0,0,0,0,0,0,0,0,0.1579,0.1578,0,0.1595,0.1596,0.1596,0.1631,0.1631,0.1631,0.1632,0.1695,0.1697,0.1698,0,0,0,0,0,0,0,0,0,0,0,0,0,0.156,0.1561,0.1579,0.1578,0.1578,0.1595,0.1596,0.1596,0.1631,0.1631,0.1631,0.1632,0.1695,0.1697,0.1698,0,0,0,0,0,0,0,0,0,0,0,0,0,0.1576,0.1561,0.1579,0.1594,0.1595,0.1595,0.1596,0.1596,0.1631,0.1631,0.1632,0.1632,0.1694,0.1696,0.1699,0.1703,0,0,0.1705,0.1706,0,0,0,0,0,0,0,0,0.1575,0.1577,0.1592,0.1593,0.1594,0.1608,0.1612,0.1633,0.1631,0.1622,0.1632,0.1632,0.1667,0.1672,0.1679,0.1706,0.1709,0.1705,0.1707,0.1707,0.1708,0,0,0,0,0,0,0,0.1574,0.1576,0.159,0.1592,0.1593,0.1594,0.1598,0.1616,0.1646,0.1623,0.1624,0.1619,0.1669,0.1677,0.1681,0.171,0.1705,0.1707,0.1708,0.1709,0.1748,0.1747,0,0,0,0,0,0,0.1563,0.1575,0.1589,0.159,0.1581,0.1594,0.1598,0.1606,0.1645,0.165,0.1618,0.162,0.1673,0.1679,0.1683,0.1708,0.1707,0.1709,0.1711,0.1748,0.1747,0.1747,0,0,0,0,0,0,0.1563,0.1565,0.1588,0.1579,0.1581,0.1594,0.1603,0.1606,0.1617,0.164,0.1647,0.1625,0.1674,0.1681,0.1696,0.171,0.171,0.1712,0.1748,0.1748,0.1747,0.1746,0,0,0,0,0,0,0.1563,0.1565,0.1576,0.1578,0.1581,0.1594,0.1602,0.1606,0.161,0.1613,0.1648,0.1654,0.1675,0.1692,0.1698,0.1713,0.1714,0.1748,0.1748,0.1747,0.1747,0.1746,0.1745,0,0,0,0,0,0.1563,0.1596,0.1577,0.1578,0.1593,0.1594,0.1596,0.1609,0.161,0.1619,0.1632,0.1653,0.1693,0.1694,0.17,0.1717,0.1749,0.1748,0.1747,0.1747,0.1746,0.1745,0,0,0,0,0,0,0.1619,0.1601,0.1581,0.1612,0.1595,0.1598,0.1614,0.1606,0.1623,0.1629,0.1649,0.1656,0.1674,0.1689,0.1688,0.1723,0.1725,0.1726,0.1722,0.1722,0.1721,0.1729,0.1716,0,0,0,0,0,0.1623,0.1631,0.1606,0.1629,0.162,0.1608,0.1611,0.1608,0.1616,0.1625,0.164,0.1659,0.1676,0.1693,0.1708,0.1729,0.1764,0.1742,0.1741,0.1741,0.1749,0.1802,0.1808,0.1745,0.1745,0.1745,0,0,0.1654,0.1641,0.165,0.1638,0.1629,0.1615,0.1614,0.1618,0.1611,0.1629,0.1641,0.1655,0.1677,0.1699,0.171,0.1716,0.1778,0.174,0.1739,0.1749,0.1803,0.1809,0.1815,0.1745,0.1745,0.1745,0,0,0.171,0.17,0.1714,0.1686,0.1657,0.1638,0.1633,0.1621,0.1625,0.162,0.1636,0.1654,0.1674,0.1701,0.1714,0.1717,0.1767,0.1723,0.1738,0.1789,0.1795,0.1801,0.1865,0.1877,0.1731,0.1731,0.1731,0,0.1743,0.1743,0.1721,0.1708,0.1682,0.1643,0.1632,0.1627,0.1622,0.1632,0.1622,0.1662,0.1675,0.1718,0.1717,0.1718,0.1762,0.1741,0.1791,0.1797,0.1803,0.1867,0.188,0.173,0.173,0.173,0.173,0,0.1792,0.1772,0.1779,0.1732,0.171,0.1695,0.1655,0.1649,0.1631,0.1629,0.1656,0.1671,0.1703,0.1706,0.1711,0.1765,0.1787,0.1779,0.1797,0.181,0.1876,0.1889,0.173,0.173,0.173,0.173,0,0,0.1897,0.1824,0.182,0.1774,0.1709,0.1693,0.1678,0.1658,0.1664,0.166,0.169,0.1703,0.1721,0.1737,0.1756,0.1796,0.1869,0.1809,0.1811,0.1881,0.2005,0.1992,0.2005,0.1878,0.188,0.1881,0.2038,0,0.1926,0.1903,0.1854,0.1803,0.1774,0.171,0.1694,0.1676,0.1671,0.1695,0.1718,0.175,0.1731,0.1758,0.1793,0.1855,0.1903,0.1829,0.1975,0.198,0.1973,0.2019,0.1959,0.2091,0.2052,0.2054,0.2056,0,0.1974,0.194,0.1913,0.1807,0.179,0.1761,0.1722,0.1696,0.1718,0.1728,0.1767,0.1791,0.1858,0.183,0.1948,0.1907,0.1955,0.1994,0.2001,0.1999,0.1991,0.2069,0.2117,0.2041,0.2077,0.2075,0.2073,0,0.2044,0.1964,0.1939,0.1903,0.1806,0.179,0.1738,0.1729,0.1721,0.1768,0.1802,0.1864,0.192,0.1979,0.2045,0.2013,0.2181,0.2147,0.2182,0.2183,0.2165,0.2159,0.2162,0.2229,0.2229,0.2228,0.2228,0,0.2073,0.2042,0.197,0.1946,0.1907,0.1827,0.1805,0.1779,0.1781,0.1787,0.183,0.1885,0.196,0.2054,0.2093,0.2193,0.2224,0.2206,0.2226,0.2161,0.2154,0.2112,0.2068,0.2234,0.2233,0.2232,0.2231,0,0.2136,0.2093,0.2046,0.1962,0.1936,0.1907,0.1817,0.1797,0.1812,0.1835,0.1858,0.1942,0.206,0.214,0.2264,0.2268,0.2297,0.2374,0.2299,0.2305,0.223,0.2189,0.2168,0.2131,0.2442,0.2443,0.2443,0,0.2163,0.2154,0.2076,0.2034,0.1988,0.1931,0.1879,0.1832,0.1808,0.1862,0.1878,0.2017,0.2088,0.2281,0.2346,0.2446,0.2348,0.2422,0.2326,0.2236,0.2206,0.2099,0.2061,0.2317,0.2316,0.2316,0.2315,0,0.2184,0.217,0.2113,0.2054,0.1994,0.1919,0.1846,0.1844,0.1791,0.1834,0.1888,0.1962,0.2156,0.2233,0.2369,0.2418,0.23,0.2414,0.2344,0.2132,0.1995,0.1965,0.2212,0.2312,0.2312,0.2312,0.2312,0.2313,0.2183,0.2156,0.2085,0.2014,0.195,0.1872,0.1805,0.1764,0.174,0.1742,0.1852,0.1918,0.2073,0.2265,0.2296,0.2313,0.2298,0.2252,0.2224,0.2135,0.2037,0.2276,0.2371,0.2371,0.2372,0.2373,0.2373,0,0.2131,0.2085,0.2027,0.1915,0.1819,0.1814,0.1733,0.1664,0.1626,0.1685,0.1731,0.185,0.195,0.2058,0.2167,0.2118,0.2036,0.2073,0.1903,0.1889,0.2138,0.2067,0.2069,0.2069,0.2069,0.2069,0.207,0.207,0.2089,0.2007,0.1971,0.1795,0.1718,0.1584,0.1533,0.1491,0.1498,0.1507,0.1549,0.1638,0.1818,0.1943,0.1939,0.1922,0.1789,0.1732,0.1727,0.1883,0.1896,0.1908,0.183,0.1783,0.1782,0.1418,0.1415,0.1413]},{"header":{"parameterUnit":"m.s-1","parameterCategory":2,"la1":30.2991,"la2":30.254,"lo1":-89.0895,"lo2":-89.0444,"dy":0.0017,"dx":0.0017,"nx":28,"ny":28,"refTime":"2024-02-27T09:00:00:Z","depth":"0","parameterNumber":3,"parameterNumberName":"V-component_of_CURRENTS"},"data":[0,0,0,0,0,0,0,0,0,0,0,0,0,0,0,0,0,0,0,0,0,0,0,0,0,0,0,0,0,0,0,0,0,0,0,0,0,0,0,0,0,0,0,0,0,0,0,0,0,0,0,0,0,0,0,0,0,0,0.058,0.0578,0,0.0397,0.0395,0.0393,0.0308,0.0308,0.0308,0.0308,0.0204,0.0201,0.0198,0,0,0,0,0,0,0,0,0,0,0,0,0,0.0728,0.0727,0.058,0.0577,0.0575,0.0398,0.0395,0.0393,0.0308,0.0308,0.0308,0.0308,0.0205,0.0201,0.0198,0,0,0,0,0,0,0,0,0,0,0,0,0,0.0618,0.0726,0.058,0.0511,0.0503,0.0398,0.0395,0.0392,0.0308,0.0308,0.0308,0.0308,0.0206,0.0202,0.0198,0.0171,0,0,0.0185,0.0183,0,0,0,0,0,0,0,0,0.0625,0.0613,0.0523,0.0515,0.0506,0.0374,0.0409,0.0322,0.0308,0.0383,0.0308,0.0308,0.0267,0.0258,0.0224,0.0166,0.0161,0.0184,0.0182,0.018,0.0179,0,0,0,0,0,0,0,0.0632,0.0619,0.0509,0.0521,0.051,0.0445,0.0431,0.0391,0.033,0.0377,0.037,0.0348,0.0263,0.0228,0.0221,0.016,0.0184,0.0181,0.0178,0.0177,0.0051,0.005,0,0,0,0,0,0,0.0659,0.0627,0.0514,0.0503,0.0565,0.0443,0.0426,0.0418,0.0328,0.0313,0.0348,0.0344,0.0236,0.0226,0.0218,0.0187,0.018,0.0176,0.0174,0.0051,0.005,0.0049,0,0,0,0,0,0,0.0663,0.0651,0.0522,0.0559,0.0538,0.0441,0.0431,0.0414,0.0378,0.0305,0.0292,0.0329,0.0235,0.0223,0.0172,0.0182,0.0174,0.017,0.0052,0.0051,0.005,0.0122,0,0,0,0,0,0,0.0669,0.0654,0.0661,0.0562,0.0537,0.0463,0.043,0.041,0.0363,0.0357,0.0285,0.0275,0.0234,0.0178,0.0168,0.0176,0.0167,0.0053,0.0052,0.005,0.0121,0.0123,0.0126,0,0,0,0,0,0.0675,0.0689,0.0663,0.0649,0.0549,0.0462,0.0444,0.0375,0.0363,0.0344,0.0291,0.0277,0.0161,0.0174,0.0162,0.017,0.0054,0.0052,0.005,0.0119,0.0123,0.0126,0,0,0,0,0,0,0.0755,0.0678,0.0648,0.0638,0.0556,0.0448,0.0429,0.038,0.0321,0.0322,0.0262,0.0247,0.0203,0.0171,0.0186,0.0125,0.0107,0.0103,0.0164,0.0166,0.0169,0.0201,0.0164,0,0,0,0,0,0.0777,0.077,0.067,0.0661,0.0626,0.0529,0.0489,0.0436,0.0366,0.0339,0.0287,0.0235,0.0184,0.0165,0.011,0.0083,0.0067,0.0078,0.0081,0.0084,0.0098,0.0075,0.0078,0.0043,0.0043,0.0043,0,0,0.0802,0.0762,0.0755,0.0677,0.0615,0.0556,0.0506,0.0447,0.0401,0.0341,0.0285,0.0237,0.0173,0.0132,0.0112,0.0112,0.0083,0.0081,0.0084,0.0098,0.0073,0.0077,0.008,0.0042,0.0042,0.0043,0,0,0.0836,0.0816,0.0807,0.0747,0.0658,0.0589,0.0576,0.0468,0.043,0.0362,0.031,0.0275,0.0188,0.0154,0.0125,0.0111,0.0089,0.0089,0.0141,0.0118,0.0122,0.0125,0.0114,0.0116,0.0102,0.0102,0.0102,0,0.0852,0.0841,0.0787,0.0753,0.0707,0.0609,0.0567,0.0507,0.0397,0.0379,0.0355,0.0248,0.0203,0.0164,0.0158,0.0123,0.0104,0.0141,0.0126,0.0128,0.013,0.0118,0.0119,0.0105,0.0105,0.0104,0.0104,0,0.0861,0.085,0.0841,0.0767,0.0712,0.0665,0.0567,0.0525,0.0473,0.0415,0.0365,0.0298,0.0245,0.0223,0.0186,0.0176,0.0156,0.0127,0.013,0.0139,0.0125,0.0124,0.011,0.0109,0.0108,0.0107,0,0,0.0866,0.0848,0.0841,0.0826,0.0718,0.0672,0.0616,0.0535,0.0521,0.0438,0.0425,0.0343,0.0324,0.0289,0.0245,0.0234,0.0235,0.0196,0.0193,0.0208,0.0191,0.0191,0.0191,0.0201,0.0201,0.0201,0.0179,0,0.0865,0.0855,0.0828,0.0789,0.0761,0.0685,0.0639,0.0569,0.0517,0.0486,0.0435,0.0399,0.0341,0.0335,0.0309,0.025,0.0235,0.0244,0.0161,0.0159,0.0177,0.0191,0.0227,0.0211,0.0179,0.0179,0.0179,0,0.0846,0.0853,0.0839,0.0818,0.0797,0.0761,0.07,0.0649,0.0591,0.0563,0.053,0.0482,0.0452,0.0406,0.0324,0.033,0.0269,0.0226,0.0223,0.0202,0.0159,0.0192,0.0212,0.0114,0.0178,0.0178,0.0178,0,0.0854,0.0846,0.0853,0.0836,0.079,0.0783,0.0748,0.0682,0.0663,0.0631,0.0639,0.0566,0.0557,0.0466,0.0369,0.0347,0.0287,0.0242,0.0183,0.0182,0.0188,0.0187,0.0124,0.0188,0.0188,0.0188,0.0188,0,0.0836,0.0835,0.0877,0.0869,0.0878,0.0831,0.0823,0.0786,0.076,0.0763,0.0696,0.0706,0.0572,0.0515,0.0405,0.0305,0.031,0.0205,0.018,0.0212,0.0214,0.0107,0.0055,0.0187,0.0187,0.0187,0.0187,0,0.0806,0.0834,0.0845,0.0863,0.0877,0.0876,0.0875,0.0871,0.0855,0.0869,0.0871,0.0818,0.0752,0.0615,0.0485,0.0373,0.023,0.0224,0.0279,0.0261,0.0109,0.006,0.0008,-0.0008,0.0159,0.0159,0.0159,0,0.0783,0.0796,0.0852,0.0876,0.0887,0.0906,0.0911,0.0906,0.0919,0.0942,0.0962,0.0925,0.09,0.0719,0.0521,0.0339,0.0247,0.0248,0.0208,0.012,0.0047,0.0029,0.0018,0.0242,0.0243,0.0243,0.0244,0,0.0738,0.0769,0.0791,0.0861,0.0897,0.0935,0.0969,0.1007,0.1014,0.1061,0.1114,0.1115,0.0955,0.0802,0.0559,0.0426,0.0217,0.0253,0.0145,0.0103,0.0097,0.0063,0.0239,0.0248,0.0248,0.0248,0.0247,0.0247,0.0699,0.0727,0.0783,0.0843,0.0889,0.0964,0.1012,0.1075,0.1145,0.1231,0.1224,0.1247,0.1036,0.0718,0.0538,0.0232,0.0233,0.0137,0.0086,0.0075,0.0063,0.0258,0.0245,0.0244,0.0244,0.0243,0.0243,0,0.0661,0.0718,0.0767,0.0849,0.0899,0.0939,0.1043,0.1115,0.1238,0.1309,0.1367,0.1275,0.1001,0.071,0.0306,0.0099,0.0042,-0.0012,-0.0039,-0.0043,0.0113,0.0118,0.0098,0.0098,0.0098,0.0098,0.0099,0.0099,0.0646,0.0702,0.0758,0.0852,0.0906,0.1008,0.1087,0.1215,0.1304,0.1417,0.1437,0.1442,0.1251,0.0509,0.0038,-0.0074,-0.02,-0.0211,-0.0288,-0.0209,-0.0199,-0.019,-0.0199,-0.0285,-0.0285,-0.039,-0.0392,-0.0393]}],[{"header":{"parameterUnit":"m.s-1","parameterCategory":2,"la1":30.2991,"la2":30.254,"lo1":-89.0895,"lo2":-89.0444,"dy":0.0017,"dx":0.0017,"nx":28,"ny":28,"refTime":"2024-02-27T09:00:00:Z","depth":"2","parameterNumber":2,"parameterNumberName":"U-component_of_CURRENTS"},"data":[0,0,0,0,0,0,0,0,0,0,0,0,0,0,0,0,0,0,0,0,0,0,0,0,0,0,0,0,0,0,0,0,0,0,0,0,0,0,0,0,0,0,0,0,0,0,0,0,0,0,0,0,0,0,0,0,0,0,0.1301,0.1302,0,0.133,0.1329,0.1329,0.1342,0.1343,0.1344,0.1345,0.1283,0.128,0.1278,0,0,0,0,0,0,0,0,0,0,0,0,0,0.1247,0.1247,0.1301,0.1302,0.1304,0.133,0.1329,0.1328,0.1342,0.1343,0.1345,0.1346,0.1284,0.1281,0.1277,0,0,0,0,0,0,0,0,0,0,0,0,0,0.1262,0.1247,0.1301,0.1322,0.1325,0.133,0.1329,0.1328,0.1342,0.1343,0.1345,0.1346,0.1285,0.1281,0.1277,0.1223,0,0,0.1265,0.1263,0,0,0,0,0,0,0,0,0.1261,0.1263,0.1317,0.1321,0.1324,0.1344,0.1288,0.1292,0.1342,0.1324,0.1345,0.1347,0.1301,0.1296,0.1283,0.122,0.1218,0.1265,0.1262,0.1261,0.126,0,0,0,0,0,0,0,0.126,0.1262,0.1301,0.1319,0.1323,0.1327,0.1329,0.1288,0.1293,0.1325,0.1329,0.1349,0.13,0.1287,0.1282,0.1217,0.1265,0.1261,0.1259,0.1258,0.1122,0.112,0,0,0,0,0,0,0.1277,0.126,0.1301,0.1303,0.1308,0.1327,0.133,0.1327,0.1296,0.1297,0.1348,0.135,0.1293,0.1286,0.128,0.1293,0.1261,0.1257,0.1255,0.1123,0.1121,0.112,0,0,0,0,0,0,0.1275,0.1279,0.13,0.1293,0.1297,0.1328,0.1324,0.1327,0.1348,0.1316,0.1313,0.1372,0.1294,0.1285,0.1263,0.1288,0.1255,0.1252,0.1124,0.1122,0.1121,0.1268,0,0,0,0,0,0,0.1273,0.1278,0.1272,0.1293,0.1299,0.1315,0.1324,0.1327,0.1362,0.1365,0.1335,0.1329,0.1294,0.1269,0.1259,0.1282,0.1249,0.1126,0.1123,0.1121,0.1265,0.1271,0.1277,0,0,0,0,0,0.1271,0.1264,0.127,0.1276,0.1291,0.1316,0.1317,0.1337,0.1362,0.1363,0.1348,0.1332,0.1246,0.1265,0.1254,0.1276,0.1127,0.1124,0.1121,0.1262,0.127,0.1277,0,0,0,0,0,0,0.1249,0.1266,0.1274,0.1275,0.1301,0.1323,0.133,0.1356,0.1345,0.1349,0.1325,0.1316,0.1314,0.1251,0.1274,0.1219,0.1179,0.1173,0.1289,0.1296,0.1302,0.1324,0.1246,0,0,0,0,0,0.124,0.1237,0.1263,0.1272,0.128,0.131,0.1325,0.1343,0.1349,0.1349,0.1332,0.1297,0.1283,0.126,0.1226,0.119,0.1197,0.1186,0.1192,0.1199,0.1201,0.124,0.1253,0.111,0.111,0.111,0,0,0.1245,0.1252,0.1255,0.1268,0.1284,0.1305,0.132,0.1349,0.1366,0.1339,0.1339,0.1332,0.1281,0.1262,0.1249,0.1218,0.1245,0.1195,0.1202,0.1201,0.1239,0.1254,0.1267,0.1108,0.1109,0.1109,0,0,0.1255,0.125,0.125,0.1264,0.1295,0.1312,0.1333,0.1357,0.136,0.1363,0.1361,0.1366,0.1313,0.1296,0.128,0.1284,0.1295,0.1266,0.1304,0.1343,0.1357,0.1369,0.1434,0.1451,0.125,0.125,0.125,0,0.126,0.1258,0.126,0.1267,0.1285,0.1325,0.1343,0.1351,0.1368,0.1369,0.1372,0.1363,0.1331,0.1338,0.1345,0.1307,0.1342,0.13,0.1361,0.1372,0.1383,0.1445,0.1462,0.1257,0.1256,0.1255,0.1255,0,0.1281,0.1272,0.1279,0.1295,0.1311,0.1334,0.1356,0.1365,0.1389,0.1407,0.1429,0.1406,0.14,0.1396,0.1379,0.1426,0.1437,0.1395,0.1367,0.1408,0.1469,0.1484,0.1266,0.1264,0.1262,0.126,0,0,0.1291,0.1291,0.1295,0.1289,0.1323,0.134,0.1361,0.1387,0.1423,0.1433,0.1474,0.1469,0.149,0.1469,0.1461,0.1491,0.1614,0.1482,0.1481,0.1591,0.1745,0.1647,0.1654,0.1609,0.1611,0.1613,0.1775,0,0.1304,0.1311,0.1318,0.1336,0.1326,0.1355,0.1381,0.141,0.1438,0.148,0.1487,0.1525,0.1507,0.1534,0.1566,0.1605,0.1653,0.1575,0.1646,0.1649,0.1595,0.1667,0.1475,0.1593,0.179,0.1792,0.1794,0,0.1307,0.13,0.1319,0.1319,0.1327,0.1371,0.1417,0.144,0.1498,0.1521,0.1568,0.1592,0.165,0.1624,0.1731,0.1695,0.1732,0.1759,0.1765,0.1627,0.1577,0.1568,0.1613,0.1819,0.1817,0.1815,0.1813,0,0.1279,0.1291,0.1306,0.1312,0.134,0.1368,0.1405,0.1463,0.1487,0.1564,0.1613,0.1678,0.173,0.1786,0.1832,0.1807,0.1957,0.1912,0.1864,0.186,0.1679,0.1652,0.1992,0.1991,0.1991,0.1991,0.199,0,0.1239,0.1243,0.1306,0.1304,0.1356,0.1366,0.1433,0.148,0.1544,0.1598,0.1647,0.1712,0.1779,0.1856,0.1887,0.1932,0.1999,0.1898,0.1894,0.1722,0.1699,0.1854,0.1835,0.1997,0.1995,0.1994,0.1993,0,0.1162,0.1208,0.1248,0.1315,0.1339,0.1388,0.1462,0.1488,0.1566,0.1641,0.1671,0.1775,0.1874,0.1927,0.2031,0.1994,0.2041,0.2033,0.1838,0.1805,0.1916,0.1902,0.2016,0.2014,0.2012,0.201,0.2009,0,0.1137,0.1128,0.1269,0.1319,0.1357,0.1413,0.1438,0.1506,0.1536,0.1673,0.1707,0.183,0.1886,0.2,0.1954,0.1986,0.2048,0.183,0.1707,0.1933,0.1919,0.1908,0.1898,0.1559,0.1554,0.155,0.1547,0,0.1057,0.1141,0.1177,0.131,0.138,0.1404,0.1453,0.1483,0.1554,0.1625,0.173,0.1789,0.1859,0.1798,0.1807,0.1781,0.1799,0.1747,0.2058,0.1553,0.1507,0.149,0.1495,0.1512,0.1515,0.1518,0.152,0.1521,0.1051,0.1108,0.1212,0.1319,0.1374,0.1395,0.14,0.1429,0.1482,0.1541,0.1647,0.1669,0.1651,0.1558,0.1529,0.149,0.159,0.1514,0.1526,0.1542,0.143,0.1379,0.1343,0.1346,0.1348,0.135,0.1351,0,0.1065,0.1131,0.12,0.1339,0.1339,0.1388,0.1396,0.1369,0.14,0.1431,0.1476,0.1323,0.1268,0.1303,0.1177,0.1147,0.1117,0.1116,0.1081,0.1114,0.1145,0.1012,0.0816,0.0815,0.0815,0.0814,0,0,0.1095,0.1163,0.1199,0.1262,0.1318,0.1302,0.1288,0.1252,0.1254,0.1213,0.1183,0.1189,0.1242,0.102,0.0963,0.0908,0.101,0.0853,0.1269,0.1261,0.1291,0.1346,0.1175,0,0,0,0,0]},{"header":{"parameterUnit":"m.s-1","parameterCategory":2,"la1":30.2991,"la2":30.254,"lo1":-89.0895,"lo2":-89.0444,"dy":0.0017,"dx":0.0017,"nx":28,"ny":28,"refTime":"2024-02-27T09:00:00:Z","depth":"2","parameterNumber":3,"parameterNumberName":"V-component_of_CURRENTS"},"data":[0,0,0,0,0,0,0,0,0,0,0,0,0,0,0,0,0,0,0,0,0,0,0,0,0,0,0,0,0,0,0,0,0,0,0,0,0,0,0,0,0,0,0,0,0,0,0,0,0,0,0,0,0,0,0,0,0,0,0.0272,0.0271,0,0.0116,0.0114,0.0111,0.0025,0.0026,0.0026,0.0027,-0.0138,-0.0143,-0.0148,0,0,0,0,0,0,0,0,0,0,0,0,0,0.0368,0.0367,0.0272,0.0271,0.027,0.0117,0.0114,0.0111,0.0025,0.0026,0.0027,0.0027,-0.0137,-0.0143,-0.0149,0,0,0,0,0,0,0,0,0,0,0,0,0,0.0273,0.0367,0.0272,0.0215,0.0209,0.0117,0.0113,0.011,0.0025,0.0026,0.0027,0.0028,-0.0135,-0.0142,-0.0149,-0.0213,0,0,-0.0172,-0.0175,0,0,0,0,0,0,0,0,0.0278,0.0268,0.0225,0.0219,0.0213,0.0099,0.0087,0.0004,0.0025,0.0085,0.0027,0.0028,-0.0055,-0.0069,-0.0113,-0.0221,-0.0228,-0.0173,-0.0177,-0.0181,-0.0183,0,0,0,0,0,0,0,0.0285,0.0274,0.0201,0.0224,0.0216,0.0155,0.0142,0.007,0.0005,0.008,0.0076,0.0073,-0.0059,-0.0105,-0.0117,-0.0231,-0.0173,-0.0179,-0.0184,-0.0187,-0.0361,-0.0361,0,0,0,0,0,0,0.0328,0.0281,0.0206,0.0197,0.0259,0.0154,0.0139,0.0127,0.0006,-0.0009,0.0072,0.0069,-0.0093,-0.0108,-0.0123,-0.0155,-0.018,-0.0187,-0.0192,-0.0361,-0.0361,-0.0361,0,0,0,0,0,0,0.0331,0.0323,0.0213,0.0243,0.0226,0.0153,0.0139,0.0124,0.0098,0.0002,-0.0015,0.0066,-0.0093,-0.0113,-0.018,-0.0164,-0.0191,-0.0198,-0.0361,-0.0361,-0.0361,-0.0252,0,0,0,0,0,0,0.0334,0.0324,0.0315,0.0246,0.0226,0.0164,0.0138,0.012,0.0098,0.0093,-0.001,-0.0026,-0.0094,-0.0169,-0.0188,-0.0174,-0.0203,-0.0361,-0.0361,-0.0361,-0.0255,-0.0248,-0.0242,0,0,0,0,0,0.0338,0.0325,0.0315,0.0306,0.0221,0.0165,0.0147,0.0092,0.0097,0.0074,0.0012,-0.0022,-0.0183,-0.0176,-0.0198,-0.0186,-0.036,-0.0361,-0.0361,-0.0258,-0.0249,-0.0242,0,0,0,0,0,0,0.0343,0.0314,0.0302,0.0276,0.0232,0.0154,0.013,0.0109,0.0039,0.0042,-0.0037,-0.006,-0.011,-0.0168,-0.0157,-0.0238,-0.0273,-0.0277,-0.0186,-0.0179,-0.0173,-0.014,-0.021,0,0,0,0,0,0.0349,0.0349,0.0296,0.028,0.0262,0.0205,0.0176,0.0145,0.0086,0.0057,-0.001,-0.0078,-0.0135,-0.0169,-0.0243,-0.0293,-0.032,-0.0298,-0.0291,-0.0285,-0.0274,-0.0303,-0.0297,-0.0363,-0.0363,-0.0363,0,0,0.0351,0.0336,0.0334,0.0285,0.0247,0.0221,0.0187,0.0154,0.0129,0.005,-0.0009,-0.0062,-0.0144,-0.0201,-0.0227,-0.0243,-0.0279,-0.0285,-0.0279,-0.0272,-0.0302,-0.0296,-0.029,-0.0363,-0.0363,-0.0363,0,0,0.0362,0.0341,0.0342,0.0315,0.0278,0.0238,0.0245,0.0175,0.0137,0.0081,0.0028,-0.0007,-0.0116,-0.0165,-0.02,-0.0202,-0.0244,-0.0223,-0.0165,-0.0193,-0.0187,-0.0182,-0.0191,-0.0188,-0.0219,-0.0219,-0.0219,0,0.0349,0.0357,0.0329,0.0322,0.0304,0.0263,0.0248,0.02,0.0118,0.0094,0.0079,-0.0032,-0.0094,-0.0138,-0.0136,-0.0183,-0.0203,-0.0182,-0.018,-0.0176,-0.0173,-0.0185,-0.0183,-0.0214,-0.0214,-0.0215,-0.0215,0,0.0369,0.0367,0.0366,0.0353,0.0323,0.0307,0.0254,0.0217,0.019,0.0151,0.0103,0.0025,-0.0031,-0.0051,-0.0094,-0.0102,-0.0124,-0.0164,-0.0189,-0.0159,-0.0174,-0.0174,-0.0206,-0.0208,-0.0209,-0.0211,0,0,0.0332,0.037,0.037,0.038,0.0341,0.0321,0.0285,0.0236,0.024,0.0171,0.0164,0.0086,0.0073,0.0033,-0.0017,-0.0035,-0.002,-0.0079,-0.0083,-0.0067,-0.0065,-0.0094,-0.0098,-0.0058,-0.0058,-0.0058,-0.0077,0,0.0338,0.0368,0.0372,0.0382,0.0377,0.0342,0.0319,0.0279,0.0245,0.0224,0.0169,0.0145,0.0095,0.0093,0.0065,-0.0003,-0.0017,-0.001,-0.0115,-0.0117,-0.013,-0.0098,-0.0091,-0.0109,-0.0077,-0.0077,-0.0077,0,0.0328,0.0359,0.0383,0.0409,0.0404,0.0411,0.0388,0.0363,0.0325,0.0304,0.0282,0.024,0.0207,0.0165,0.0083,0.0091,0.0028,-0.0022,-0.0025,-0.009,-0.0147,-0.0141,-0.011,-0.0077,-0.0077,-0.0077,-0.0077,0,0.0307,0.035,0.0384,0.039,0.041,0.0419,0.0426,0.0396,0.0389,0.0373,0.0389,0.0326,0.0317,0.0228,0.0124,0.0107,0.0037,-0.0009,-0.0094,-0.0096,-0.013,-0.0137,-0.0061,-0.0061,-0.0061,-0.0061,-0.0061,0,0.0282,0.0308,0.04,0.0413,0.0468,0.0459,0.0492,0.049,0.049,0.0516,0.0453,0.0465,0.0335,0.0269,0.0159,0.0043,0.0059,-0.0069,-0.0102,-0.0093,-0.0095,-0.011,-0.0115,-0.0062,-0.0062,-0.0062,-0.0061,0,0.0235,0.029,0.0351,0.043,0.0458,0.0503,0.0559,0.0575,0.0586,0.0622,0.0627,0.0574,0.0495,0.0354,0.0217,0.0103,-0.0017,-0.0068,-0.0038,-0.0067,-0.0138,-0.0138,-0.0155,-0.0156,-0.0157,-0.0158,-0.0159,0,0.0222,0.0247,0.038,0.044,0.049,0.0556,0.0586,0.0615,0.0648,0.0692,0.0717,0.0663,0.0614,0.0402,0.0202,0.0009,-0.0022,-0.0114,-0.0154,-0.0116,-0.0147,-0.0145,-0.0144,-0.0148,-0.0149,-0.0149,-0.015,0,0.0207,0.0267,0.0337,0.0466,0.0545,0.0606,0.0679,0.0722,0.076,0.0807,0.0859,0.083,0.0637,0.0431,0.0161,0.0029,-0.0085,-0.013,-0.0096,-0.0131,-0.0113,-0.0143,-0.0141,-0.0154,-0.0153,-0.0153,-0.0153,-0.0153,0.0219,0.0296,0.0407,0.0523,0.0599,0.0673,0.0735,0.0799,0.0874,0.0943,0.0924,0.0872,0.0637,0.027,0.0087,-0.0098,-0.0111,-0.0203,-0.02,-0.0197,-0.0198,-0.0184,-0.0237,-0.0237,-0.0237,-0.0237,-0.0237,0,0.0261,0.0355,0.0456,0.0603,0.0663,0.0699,0.0801,0.0857,0.0968,0.0972,0.0991,0.0747,0.0508,0.0283,0.0007,-0.0179,-0.0176,-0.0231,-0.0194,-0.0191,-0.0188,-0.0187,-0.0222,-0.0222,-0.0222,-0.0222,0,0,0.0299,0.0422,0.0492,0.0639,0.0713,0.0811,0.0876,0.0957,0.0998,0.1003,0.0942,0.0789,0.0525,0.0307,0.0071,-0.0054,-0.007,-0.0079,-0.008,-0.0006,0.0001,-0.0173,-0.0168,0,0,0,0,0]}],[{"header":{"parameterUnit":"m.s-1","parameterCategory":2,"la1":30.2991,"la2":30.254,"lo1":-89.0895,"lo2":-89.0444,"dy":0.0017,"dx":0.0017,"nx":28,"ny":28,"refTime":"2024-02-27T09:00:00:Z","depth":"4","parameterNumber":2,"parameterNumberName":"U-component_of_CURRENTS"},"data":[0,0,0,0,0,0,0,0,0,0,0,0,0,0,0,0,0,0,0,0,0,0,0,0,0,0,0,0,0,0,0,0,0,0,0,0,0,0,0,0,0,0,0,0,0,0,0,0,0,0,0,0,0,0,0,0,0,0,-0.0311,-0.0311,0,-0.0236,-0.0235,-0.0233,-0.0185,-0.0186,-0.0186,-0.0187,-0.0229,-0.023,-0.0231,0,0,0,0,0,0,0,0,0,0,0,0,0,-0.0343,-0.0342,-0.0311,-0.0311,-0.0311,-0.0236,-0.0235,-0.0233,-0.0185,-0.0186,-0.0186,-0.0187,-0.0229,-0.023,-0.0231,0,0,0,0,0,0,0,0,0,0,0,0,0,-0.0296,-0.0342,-0.0311,-0.0285,-0.0282,-0.0237,-0.0234,-0.0232,-0.0185,-0.0186,-0.0186,-0.0187,-0.0229,-0.023,-0.0231,-0.022,0,0,-0.0234,-0.0234,0,0,0,0,0,0,0,0,-0.0299,-0.0294,-0.0289,-0.0287,-0.0284,-0.0229,-0.0262,-0.0237,-0.0185,-0.0212,-0.0187,-0.0188,-0.0246,-0.0245,-0.0214,-0.0222,-0.0224,-0.0234,-0.0234,-0.0235,-0.0235,0,0,0,0,0,0,0,-0.0302,-0.0297,-0.0272,-0.0289,-0.0286,-0.0254,-0.0248,-0.0255,-0.022,-0.021,-0.0208,-0.0215,-0.0244,-0.0213,-0.0216,-0.0224,-0.0234,-0.0235,-0.0235,-0.0235,-0.0344,-0.0346,0,0,0,0,0,0,-0.0333,-0.03,-0.0274,-0.0271,-0.0304,-0.0254,-0.0246,-0.0238,-0.0217,-0.0217,-0.0214,-0.0213,-0.0211,-0.0215,-0.0217,-0.028,-0.0235,-0.0236,-0.0236,-0.0342,-0.0345,-0.0347,0,0,0,0,0,0,-0.0333,-0.0331,-0.0278,-0.0292,-0.0284,-0.0254,-0.0244,-0.0236,-0.0248,-0.0221,-0.0221,-0.024,-0.0212,-0.0216,-0.0266,-0.028,-0.0236,-0.0237,-0.0339,-0.0343,-0.0346,-0.0359,0,0,0,0,0,0,-0.0334,-0.0331,-0.0352,-0.0294,-0.0285,-0.0268,-0.0244,-0.0235,-0.0252,-0.0251,-0.0243,-0.0244,-0.0213,-0.0265,-0.0267,-0.028,-0.0238,-0.0336,-0.0341,-0.0345,-0.0355,-0.0362,-0.0368,0,0,0,0,0,-0.0335,-0.0352,-0.0352,-0.0351,-0.0308,-0.027,-0.0261,-0.0236,-0.0254,-0.0251,-0.0268,-0.0246,-0.0294,-0.0268,-0.0269,-0.0283,-0.0334,-0.0339,-0.0344,-0.0353,-0.0361,-0.0368,0,0,0,0,0,0,-0.0364,-0.0348,-0.0347,-0.0355,-0.033,-0.0266,-0.0283,-0.0268,-0.0272,-0.0301,-0.0274,-0.0276,-0.0323,-0.032,-0.0291,-0.0334,-0.0312,-0.0318,-0.0318,-0.0325,-0.0332,-0.0278,-0.0238,0,0,0,0,0,-0.0387,-0.0407,-0.0367,-0.0381,-0.0381,-0.0345,-0.034,-0.0322,-0.0314,-0.0316,-0.0312,-0.0328,-0.0337,-0.0348,-0.0355,-0.0382,-0.0352,-0.0398,-0.0404,-0.0409,-0.0372,-0.0357,-0.0357,-0.0364,-0.0364,-0.0364,0,0,-0.0406,-0.0403,-0.0414,-0.0393,-0.0382,-0.0358,-0.0343,-0.0351,-0.0329,-0.0327,-0.0336,-0.0358,-0.0355,-0.0373,-0.0394,-0.0376,-0.04,-0.0416,-0.0419,-0.0378,-0.0362,-0.0361,-0.0359,-0.0368,-0.0367,-0.0367,0,0,-0.044,-0.0453,-0.0477,-0.0462,-0.0463,-0.0415,-0.0433,-0.0399,-0.0392,-0.04,-0.0401,-0.0434,-0.0444,-0.0427,-0.0423,-0.0479,-0.044,-0.0505,-0.048,-0.0468,-0.0465,-0.0462,-0.0442,-0.0437,-0.05,-0.05,-0.05,0,-0.0461,-0.048,-0.0475,-0.0484,-0.0471,-0.0448,-0.0438,-0.0413,-0.0399,-0.0393,-0.0417,-0.0434,-0.045,-0.0442,-0.0456,-0.0485,-0.047,-0.0443,-0.0469,-0.0466,-0.0463,-0.0442,-0.0437,-0.0501,-0.0501,-0.0501,-0.0501,0,-0.0494,-0.0518,-0.0536,-0.0525,-0.0496,-0.0502,-0.0453,-0.0445,-0.0445,-0.0413,-0.0436,-0.0455,-0.0447,-0.048,-0.0475,-0.0471,-0.0468,-0.0481,-0.0434,-0.0461,-0.0441,-0.0434,-0.0503,-0.0503,-0.0502,-0.0502,0,0,-0.0479,-0.055,-0.0549,-0.0558,-0.0527,-0.0492,-0.0465,-0.0408,-0.0384,-0.0402,-0.0371,-0.0408,-0.042,-0.0418,-0.0442,-0.0437,-0.0422,-0.0444,-0.0443,-0.0394,-0.0385,-0.0299,-0.0284,-0.044,-0.0438,-0.0437,-0.0385,0,-0.0498,-0.0544,-0.0547,-0.0537,-0.054,-0.0499,-0.0451,-0.0402,-0.0372,-0.0339,-0.0364,-0.036,-0.0395,-0.0408,-0.0405,-0.0419,-0.0403,-0.0433,-0.0389,-0.0387,-0.0282,-0.0272,-0.0433,-0.038,-0.0378,-0.0377,-0.0376,0,-0.0488,-0.0527,-0.0564,-0.0543,-0.0534,-0.0514,-0.0419,-0.0371,-0.0311,-0.0299,-0.0291,-0.03,-0.0299,-0.0335,-0.0329,-0.0348,-0.0351,-0.0364,-0.0363,-0.0257,-0.0287,-0.0346,-0.0364,-0.0365,-0.0366,-0.0367,-0.0368,0,-0.0449,-0.0496,-0.0537,-0.0541,-0.0526,-0.0518,-0.0461,-0.0379,-0.0319,-0.0273,-0.0239,-0.0244,-0.0238,-0.0252,-0.026,-0.0298,-0.0238,-0.03,-0.022,-0.0215,-0.0301,-0.0304,-0.0269,-0.0269,-0.027,-0.027,-0.027,0,-0.043,-0.0446,-0.055,-0.0569,-0.0566,-0.0521,-0.046,-0.041,-0.0318,-0.0229,-0.0227,-0.0169,-0.0215,-0.0184,-0.0217,-0.0169,-0.0198,-0.0181,-0.0181,-0.0316,-0.0321,-0.0297,-0.0301,-0.0268,-0.0268,-0.0269,-0.0269,0,-0.0379,-0.0459,-0.0505,-0.0556,-0.0569,-0.0551,-0.0465,-0.0391,-0.0315,-0.0199,-0.0182,-0.0107,-0.0057,-0.0076,-0.0079,-0.0089,-0.008,-0.0053,-0.016,-0.0174,-0.0085,-0.0092,0.0023,0.0027,0.003,0.0033,0.0035,0,-0.0376,-0.042,-0.0516,-0.0546,-0.0594,-0.0565,-0.0516,-0.0415,-0.0316,-0.0144,-0.0081,-0.0001,0.0043,0.0118,0.0078,0.0062,0.005,0.0054,-0.0044,-0.0035,-0.0049,-0.006,-0.007,0.004,0.0041,0.0042,0.0043,0,-0.0369,-0.0429,-0.0467,-0.0547,-0.0561,-0.0511,-0.0438,-0.0359,-0.0191,-0.0148,0.0037,0.0097,0.0182,0.0181,0.0201,0.0171,0.0042,0.0087,0.0077,-0.0015,-0.0014,-0.0033,-0.0046,0.0054,0.0052,0.0051,0.0051,0,-0.0373,-0.0396,-0.0476,-0.0518,-0.0522,-0.0446,-0.0403,-0.0265,-0.0153,0.0032,0.009,0.0177,0.0213,0.0245,0.0254,0.0254,0.0212,0.0168,0.0153,0.014,0.0153,0.017,0.0328,0,0,0,0,0,-0.0385,-0.0394,-0.0431,-0.0451,-0.0432,-0.043,-0.0334,-0.0266,-0.0132,0.0009,0.0066,0.0154,0.0235,0.0264,0.0278,0.0265,0.0182,0.028,0.0114,0.0116,0.0103,0.0106,0,0,0,0,0,0,-0.0385,-0.0427,-0.0423,-0.038,-0.0364,-0.0308,-0.0242,-0.0156,-0.0061,0.0045,0.0081,0.014,0.0192,0.0216,0.027,0.0275,0.0171,0.0314,0.0315,0.0123,0.0112,0.0101,0.01,0,0,0,0,0]},{"header":{"parameterUnit":"m.s-1","parameterCategory":2,"la1":30.2991,"la2":30.254,"lo1":-89.0895,"lo2":-89.0444,"dy":0.0017,"dx":0.0017,"nx":28,"ny":28,"refTime":"2024-02-27T09:00:00:Z","depth":"4","parameterNumber":3,"parameterNumberName":"V-component_of_CURRENTS"},"data":[0,0,0,0,0,0,0,0,0,0,0,0,0,0,0,0,0,0,0,0,0,0,0,0,0,0,0,0,0,0,0,0,0,0,0,0,0,0,0,0,0,0,0,0,0,0,0,0,0,0,0,0,0,0,0,0,0,0,0.0255,0.0256,0,0.0286,0.0286,0.0285,0.0313,0.0315,0.0316,0.0318,0.0288,0.0286,0.0284,0,0,0,0,0,0,0,0,0,0,0,0,0,0.0141,0.0142,0.0255,0.0256,0.0258,0.0286,0.0286,0.0285,0.0313,0.0315,0.0317,0.0318,0.0289,0.0286,0.0284,0,0,0,0,0,0,0,0,0,0,0,0,0,0.0172,0.0143,0.0254,0.0284,0.0288,0.0287,0.0286,0.0285,0.0313,0.0315,0.0317,0.0319,0.029,0.0287,0.0283,0.0221,0,0,0.0274,0.0272,0,0,0,0,0,0,0,0,0.017,0.0174,0.0278,0.0282,0.0287,0.0309,0.0236,0.0265,0.0312,0.0291,0.0318,0.032,0.0296,0.0292,0.0277,0.0219,0.0218,0.0273,0.0271,0.027,0.0269,0,0,0,0,0,0,0,0.0168,0.0173,0.0255,0.028,0.0285,0.027,0.0276,0.024,0.027,0.0293,0.0298,0.032,0.0296,0.028,0.0276,0.0217,0.0273,0.0271,0.0269,0.0267,0.0209,0.0209,0,0,0,0,0,0,0.019,0.0171,0.0254,0.0257,0.0246,0.0272,0.0278,0.029,0.0272,0.0275,0.0318,0.0321,0.0284,0.028,0.0276,0.026,0.027,0.0267,0.0265,0.0209,0.0209,0.021,0,0,0,0,0,0,0.0187,0.0197,0.0253,0.0225,0.0233,0.0273,0.0285,0.0289,0.0289,0.0294,0.0294,0.0317,0.0286,0.028,0.0256,0.0257,0.0266,0.0263,0.0208,0.0209,0.0209,0.019,0,0,0,0,0,0,0.0183,0.0195,0.02,0.0226,0.0236,0.0248,0.0284,0.0289,0.0304,0.0309,0.0292,0.0292,0.0287,0.0261,0.0253,0.0253,0.026,0.0208,0.0209,0.0209,0.0191,0.019,0.019,0,0,0,0,0,0.0179,0.0174,0.0199,0.021,0.0244,0.0249,0.0249,0.0277,0.0302,0.0286,0.029,0.0293,0.0262,0.0258,0.0248,0.0247,0.0208,0.0208,0.0209,0.0191,0.019,0.019,0,0,0,0,0,0,0.0118,0.0178,0.0206,0.0218,0.0237,0.0258,0.0255,0.0275,0.0263,0.0275,0.0274,0.0272,0.0259,0.0252,0.0249,0.0238,0.0243,0.0242,0.0232,0.0232,0.0231,0.0223,0.0258,0,0,0,0,0,0.0112,0.0126,0.0176,0.0181,0.0196,0.0224,0.0231,0.0253,0.0259,0.0257,0.025,0.0252,0.0249,0.0241,0.023,0.0201,0.0198,0.0205,0.0204,0.0204,0.0194,0.0202,0.0201,0.0212,0.0212,0.0212,0,0,0.0094,0.0127,0.0137,0.017,0.0187,0.0192,0.0229,0.0242,0.0238,0.0252,0.0228,0.024,0.0242,0.0226,0.0221,0.0222,0.0197,0.0205,0.0204,0.0194,0.0203,0.0202,0.0201,0.0213,0.0213,0.0213,0,0,0.0068,0.0091,0.0105,0.0113,0.0155,0.0166,0.0174,0.0198,0.0201,0.0186,0.0212,0.0221,0.0196,0.0205,0.0207,0.0193,0.0196,0.0206,0.0189,0.0197,0.0196,0.0195,0.0174,0.0171,0.0204,0.0204,0.0204,0,0.0053,0.0069,0.0101,0.011,0.0118,0.0156,0.0159,0.0153,0.0163,0.0162,0.0179,0.0184,0.0185,0.0184,0.0193,0.0189,0.0191,0.0187,0.0195,0.0194,0.0193,0.0172,0.0169,0.0204,0.0204,0.0204,0.0204,0,0.0037,0.0049,0.0048,0.0076,0.0077,0.0078,0.0099,0.0089,0.0107,0.0117,0.0122,0.0133,0.0144,0.0155,0.0166,0.0171,0.0172,0.0193,0.0192,0.0191,0.0169,0.0166,0.0202,0.0203,0.0203,0.0203,0,0,0.0037,0.0041,0.0048,0.005,0.0061,0.0063,0.0044,0.0046,0.0047,0.0056,0.0055,0.007,0.0102,0.0108,0.0136,0.0146,0.0139,0.0169,0.017,0.0139,0.0141,0.0111,0.0105,0.0171,0.0171,0.0171,0.0122,0,0.0028,0.0029,0.003,0.0018,0.0022,0.0024,0.0002,0.0005,0.0011,0.0007,0.0036,0.0049,0.0077,0.0103,0.0113,0.0134,0.0135,0.0149,0.0154,0.0153,0.012,0.0102,0.0171,0.012,0.0119,0.0119,0.0118,0,0.004,0.0033,0.002,0.0003,0.0006,-0.0011,-0.0025,-0.0035,-0.0037,-0.0024,-0.0004,0.002,0.0032,0.007,0.0081,0.0094,0.0113,0.0128,0.0127,0.0103,0.0118,0.0126,0.0114,0.0114,0.0114,0.0115,0.0115,0,0.0056,0.0038,0.0021,0.0011,-0.0011,-0.0027,-0.0037,-0.0041,-0.0042,-0.0035,-0.0025,-0.0009,0.0007,0.003,0.0051,0.0075,0.0058,0.0094,0.0076,0.0074,0.0124,0.0126,0.0104,0.0104,0.0104,0.0104,0.0104,0,0.0064,0.0058,0.002,0.0013,-0.0016,-0.0024,-0.004,-0.0045,-0.0044,-0.0044,-0.0029,-0.0029,0.0005,-0.0,0.0026,0.0022,0.0034,0.0057,0.0059,0.0116,0.0117,0.0121,0.0123,0.0102,0.0102,0.0103,0.0103,0,0.0101,0.0075,0.006,0.0018,-0.0004,-0.0013,-0.0039,-0.0043,-0.0042,-0.0044,-0.0038,-0.0046,-0.0059,-0.0048,-0.0029,-0.0016,-0.001,-0.0007,0.0014,0.0022,0.0005,0.0007,-0.0038,-0.0039,-0.0041,-0.0042,-0.0042,0,0.0106,0.0102,0.0067,0.0056,0.0033,0.0007,-0.0013,-0.0032,-0.0037,-0.0058,-0.0064,-0.0083,-0.0086,-0.0105,-0.0092,-0.0082,-0.0057,-0.0066,0.0003,-0.0017,-0.0009,-0.0005,-0.0001,-0.0044,-0.0045,-0.0045,-0.0045,0,0.0112,0.0115,0.0107,0.01,0.0072,0.0031,-0.0001,-0.0012,-0.0037,-0.0045,-0.0072,-0.0083,-0.0114,-0.0119,-0.0121,-0.0103,-0.0069,-0.0078,-0.0074,-0.0009,-0.0025,-0.0016,-0.001,-0.005,-0.0049,-0.0049,-0.0048,0,0.0113,0.0126,0.0138,0.0132,0.0118,0.0075,0.0036,0.0002,-0.0018,-0.0051,-0.0072,-0.0097,-0.0118,-0.0133,-0.0139,-0.0132,-0.0106,-0.0077,-0.0072,-0.0067,-0.0053,-0.0076,-0.0128,0,0,0,0,0,0.01,0.0135,0.0156,0.0152,0.0161,0.0136,0.006,0.0017,-0.0035,-0.0044,-0.0051,-0.0076,-0.0097,-0.0126,-0.0119,-0.0152,-0.0106,-0.0146,-0.0069,-0.0074,-0.0069,-0.0049,0,0,0,0,0,0,0.0088,0.0127,0.0167,0.0193,0.0199,0.017,0.0118,0.006,0.004,-0.0003,-0.002,-0.0045,-0.0073,-0.0069,-0.0098,-0.0106,-0.0054,-0.0164,-0.0164,-0.0076,-0.0072,-0.0068,-0.0046,0,0,0,0,0]}]]